TimePST,TemperatureF,Dew PointF,Humidity,Sea Level PressureIn,VisibilityMPH,Wind Direction,Wind SpeedMPH,Gust SpeedMPH,PrecipitationIn,Events,Conditions,WindDirDegrees,DateUTC
12:56 AM,46.0,42.1,86,30.27,10.0,Calm,Calm,-,N/A,,Clear,0,2013-03-02 08:56:00
1:56 AM,46.9,42.1,83,30.26,10.0,Calm,Calm,-,N/A,,Clear,0,2013-03-02 09:56:00
2:56 AM,45.0,42.1,90,30.23,10.0,Calm,Calm,-,N/A,,Clear,0,2013-03-02 10:56:00
3:56 AM,46.0,42.1,86,30.22,10.0,Calm,Calm,-,N/A,,Clear,0,2013-03-02 11:56:00
4:56 AM,45.0,42.1,90,30.22,10.0,Calm,Calm,-,N/A,,Clear,0,2013-03-02 12:56:00
5:56 AM,44.1,39.9,85,30.23,10.0,Calm,Calm,-,N/A,,Clear,0,2013-03-02 13:56:00
6:56 AM,43.0,39.9,89,30.23,10.0,Calm,Calm,-,N/A,,Clear,0,2013-03-02 14:56:00
7:56 AM,45.0,42.1,90,30.23,10.0,Calm,Calm,-,N/A,,Clear,0,2013-03-02 15:56:00
8:56 AM,50.0,44.1,80,30.23,10.0,Calm,Calm,-,N/A,,Clear,0,2013-03-02 16:56:00
9:56 AM,54.0,46.0,75,30.21,10.0,Calm,Calm,-,N/A,,Clear,0,2013-03-02 17:56:00
10:56 AM,59.0,44.1,58,30.20,10.0,Calm,Calm,-,N/A,,Clear,0,2013-03-02 18:56:00
11:56 AM,63.0,44.1,50,30.17,10.0,Calm,Calm,-,N/A,,Clear,0,2013-03-02 19:56:00
12:56 PM,66.0,45.0,47,30.14,10.0,NE,3.5,-,N/A,,Clear,40,2013-03-02 20:56:00
1:56 PM,68.0,44.1,42,30.12,10.0,NW,3.5,-,N/A,,Clear,320,2013-03-02 21:56:00
2:56 PM,68.0,46.9,47,30.09,10.0,NNW,4.6,-,N/A,,Clear,330,2013-03-02 22:56:00
3:56 PM,66.9,46.9,49,30.09,10.0,NNW,3.5,-,N/A,,Clear,330,2013-03-02 23:56:00
4:56 PM,66.0,50.0,56,30.07,10.0,NNW,4.6,-,N/A,,Clear,340,2013-03-03 00:56:00
5:56 PM,63.0,50.0,63,30.07,10.0,Calm,Calm,-,N/A,,Clear,0,2013-03-03 01:56:00
6:56 PM,61.0,48.9,64,30.07,10.0,NNW,4.6,-,N/A,,Clear,340,2013-03-03 02:56:00
7:56 PM,60.1,48.9,67,30.08,10.0,NW,3.5,-,N/A,,Clear,320,2013-03-03 03:56:00
8:56 PM,57.9,48.9,72,30.09,10.0,SW,4.6,-,N/A,,Clear,230,2013-03-03 04:56:00
9:56 PM,55.0,48.9,80,30.08,10.0,Calm,Calm,-,N/A,,Clear,0,2013-03-03 05:56:00
10:56 PM,54.0,48.0,80,30.09,10.0,NW,3.5,-,N/A,,Partly Cloudy,320,2013-03-03 06:56:00